Location: Emmingen
(48.5837°N, 8.7347°E)
Time: 05:01:02
(UTC+00:00)

Daily predictions for brighter satellites

Satellite Brightness Start Highest point End
(mag) Time Altitude Azimuth Time Altitude Azimuth Time Altitude Azimuth
Cosmos 1825 2.7 00:04:51 33° WSW 00:05:44 41° WNW 00:09:00 10° N
SL-4 R/B 3.2 00:03:48 10° W 00:06:37 26° WSW 00:06:37 26° WSW
Cosmos 2154 Rocket 4.0 00:07:15 27° SSW 00:10:49 78° W 00:17:09 10° N
SL-12 R/B(2) 4.3 00:07:46 23° SSW 00:13:27 78° SE 00:23:17 10° NE
Cosmos 2297 Rocket 3.1 00:09:02 14° WSW 00:13:30 42° NW 00:18:53 10° NNE
Okean 1 Rocket 3.6 00:10:23 10° NNW 00:14:31 43° W 00:16:03 31° SW
NOSS 3-2 (A) 3.4 00:12:22 30° S 00:14:49 54° ESE 00:20:46 10° NE
Meteor 1-21 Rocket 4.3 00:12:01 28° S 00:15:10 79° E 00:20:53 10° NNE
Cosmos 923 Rocket 4.5 00:10:28 10° NNW 00:15:41 58° ENE 00:20:13 13° SE
Cosmos 2219 3.2 00:14:01 29° SSW 00:16:58 73° ESE 00:22:35 10° NNE
ADEOS II 4.5 00:16:05 10° ENE 00:18:12 12° E 00:20:19 10° ESE
Aureole 1 Rocket 2.9 00:17:04 38° S 00:18:15 60° ESE 00:22:37 10° NNE
NOSS 3-2 (C) 4.4 00:19:18 21° SSE 00:21:41 29° ESE 00:26:43 10° NE
Cosmos 1937 Rocket 4.3 00:19:39 23° SSE 00:22:22 41° ESE 00:27:16 10° NE
Cosmos 1898 Rocket 3.7 00:24:22 28° S 00:27:00 59° ESE 00:32:05 10° NNE
SL-8 Rocket 4.4 00:23:20 21° SSE 00:27:25 56° E 00:33:28 10° NNE
Cosmos 1606 3.3 00:27:58 10° N 00:31:27 47° ENE 00:33:25 22° SE
H-2A R/B 3.4 00:29:55 10° N 00:33:35 29° WNW 00:35:54 17° WSW
Resurs 1-4 Rocket 3.7 00:29:31 10° NE 00:33:53 26° E 00:37:56 11° SSE
Cosmos 1975 Rocket 3.0 00:37:42 31° S 00:39:47 86° W 00:44:13 10° N
Meteor 2-1 Rocket 4.3 00:36:00 10° NNW 00:41:58 89° W 00:46:08 20° S
Cosmos 292 Rocket 3.7 00:40:12 28° SSW 00:42:44 81° WNW 00:47:35 10° NNE
Cosmos 2263 Rocket 2.1 00:42:06 26° SSW 00:45:25 85° ESE 00:51:02 10° NNE
BlueWalker 3 3.3 00:45:15 10° WNW 00:48:48 39° N 00:52:21 10° ENE
Orbus 7S? 3.0 00:47:01 10° NW 00:49:42 71° NE 00:53:34 10° ESE
BREEZE-M DEB (TANK) 4.3 00:46:31 10° W 00:49:56 81° N 01:00:47 10° E
Cosmos 1455 Rocket 3.7 00:46:47 10° NNW 00:51:00 43° W 00:52:57 27° SW
Cosmos 1680 Rocket 3.4 00:52:26 10° NNW 00:57:40 88° WSW 01:02:17 13° SSE
Cosmos 2112 Rocket 4.0 00:55:03 10° NNW 01:00:16 84° ENE 01:05:24 10° SSE
Cosmos 2341 Rocket 4.0 00:56:40 22° SSW 01:00:53 81° W 01:07:09 10° N
Helios 1A Rocket 3.2 01:02:09 28° SSW 01:03:38 42° W 01:07:17 10° NNW
Cosmos 1818 3.6 00:58:15 10° NW 01:03:42 66° WSW 01:09:05 10° SSE
Cosmos 1025 Rocket 4.5 01:02:30 17° WSW 01:04:50 27° WNW 01:08:31 10° NNW
USA 234 4.4 00:58:50 10° E 01:05:00 46° N 01:11:11 10° WNW
Cosmos 1844 Rocket 4.1 01:00:50 12° SSE 01:05:05 28° ESE 01:09:46 10° NE
Cosmos 1461 2.7 01:06:44 27° SSW 01:08:49 79° SE 01:12:42 10° NE
Cosmos 1536 Rocket 4.1 01:06:18 18° SSE 01:09:27 54° E 01:13:47 10° NNE
CENTAUR R/B 3.2 01:11:48 11° WSW 01:17:27 52° NW 01:24:41 10° NE
COBE Rocket 4.0 01:12:26 10° N 01:17:36 79° WNW 01:21:15 20° SSW
IDEFIX/ARIANE 42P 2.6 01:16:24 10° NNE 01:21:41 81° ESE 01:25:41 18° S
SL-16 R/B 3.4 01:19:22 10° NW 01:23:55 25° WSW 01:26:33 18° SW
USA 238 DEB 4.1 01:23:02 17° S 01:27:40 49° ESE 01:34:04 10° NE
USA 238 4.1 01:23:04 16° S 01:27:43 48° ESE 01:34:07 10° NE
Cosmos 1869 3.9 01:24:42 10° NNW 01:28:06 34° W 01:29:52 22° SW
Cosmos 1603 3.8 01:23:28 10° NNW 01:29:16 85° ENE 01:35:00 10° SSE
CZ-2C R/B 3.5 01:25:01 10° NNE 01:30:25 61° E 01:34:59 13° S
MSX 3.9 01:25:25 10° NNE 01:31:11 83° ESE 01:36:00 15° SSW
Cosmos 1821 Rocket 4.0 01:26:29 15° S 01:31:41 83° E 01:37:52 10° N
Cosmos 1607 4.4 01:25:27 10° NW 01:31:54 69° NE 01:38:11 10° SE
ASTEX 1 4.3 01:28:09 10° SSE 01:32:48 48° ENE 01:37:29 10° N
Cosmos 2082 4.4 01:31:20 14° SW 01:35:53 47° NW 01:41:19 10° NNE
Cosmos 2218 Rocket 4.2 01:31:20 17° SSW 01:36:06 58° WNW 01:42:14 10° N
CZ-4C R/B 4.4 01:32:43 10° WNW 01:36:59 23° NNW 01:42:05 10° NE
CZ-2C R/B 2.6 01:32:04 11° S 01:37:12 72° WSW 01:42:38 10° NNW
CZ-2D R/B 2.2 01:31:50 10° NNE 01:37:13 79° ESE 01:41:46 14° S
Cosmos 2227 Rocket 4.0 01:33:36 10° W 01:38:01 23° NW 01:42:27 10° N
Cosmos 1943 3.3 01:32:45 10° NW 01:38:14 56° WSW 01:43:41 10° S
Cosmos 1437 Rocket 2.8 01:35:32 17° S 01:38:25 73° E 01:42:12 10° NNE
Cosmos 1900 4.4 01:34:55 18° SSW 01:38:48 88° SE 01:43:55 10° NE
Cosmos 2366 rocket 4.4 01:37:03 16° SSW 01:41:55 51° WNW 01:48:01 10° N
FENGYUN 3A 4.1 01:37:33 10° NNE 01:42:54 60° ESE 01:48:12 10° S
Cosmos 494 Rocket 4.0 01:42:03 10° NNW 01:47:19 84° WSW 01:52:34 10° SSE
Cosmos 1867 3.8 01:47:41 15° SSW 01:52:12 66° ESE 01:57:39 10° NE
Cosmos 2058 Rocket 4.4 01:51:40 10° N 01:55:53 40° ENE 02:00:01 10° SE
NPP 4.0 01:51:14 10° N 01:56:31 57° WNW 02:01:12 13° SW
ADEOS II 2.2 01:53:22 10° NNE 01:58:39 82° ESE 02:03:53 10° SSW
Cosmos 1892 Rocket 4.3 01:54:27 10° S 01:58:43 51° E 02:03:02 10° NNE
Cosmos 2228 4.1 01:57:08 10° NNW 02:00:51 29° W 02:03:53 14° SW
AQUA 4.0 01:56:22 10° NNE 02:01:06 70° ESE 02:05:48 10° S
SL-24 DEB 4.3 01:56:47 10° N 02:01:22 82° E 02:05:58 10° S
Iridium 4 Rocket 4.5 01:57:34 10° N 02:01:46 40° E 02:06:16 10° SSE
Cosmos 2123 Rocket 4.1 01:59:37 10° N 02:05:50 81° E 02:12:03 10° SSE
NOSS 3-2 (A) 4.4 02:00:42 10° W 02:05:51 39° NNW 02:12:01 10° NE
H-2A R/B 4.2 02:04:30 10° N 02:08:12 37° WNW 02:11:32 12° SW
Cosmos 1934 Rocket 4.3 02:02:52 10° S 02:09:10 72° E 02:15:32 10° NNE
SL-16 R/B 2.6 02:02:57 10° SSE 02:09:12 82° WSW 02:15:29 10° NNW
ALOS 2.6 02:04:41 10° NNE 02:09:17 62° ESE 02:13:51 10° S
USA 267 3.9 02:04:47 10° ENE 02:11:02 45° SE 02:17:13 10° SSW
NOSS 3-2 (C) 3.7 02:06:43 10° WSW 02:12:00 60° NW 02:18:24 10° NE
Resurs 1-4 Rocket 2.5 02:08:51 10° N 02:13:57 51° WNW 02:19:00 10° SW
ATLAS 5 CENTAUR R/B 3.6 02:16:51 10° SE 02:17:40 11° ESE 02:18:30 10° E
Cosmos 1844 3.8 02:14:11 10° SSW 02:19:57 87° ESE 02:25:48 10° NNE
Cosmos 1812 2.5 02:20:24 10° N 02:23:59 86° W 02:27:33 10° S
Cosmos 1544 4.0 02:22:57 10° SSE 02:25:17 29° E 02:27:39 10° NNE
BlueWalker 3 2.6 02:23:42 10° WNW 02:27:24 57° NNE 02:31:06 10° E
Cosmos 2263 Rocket 3.9 02:25:47 10° W 02:30:03 22° NW 02:34:20 10° N
SAR-Lupe-4 3.6 02:30:52 10° NNE 02:34:27 86° ESE 02:38:00 10° SSW
Cosmos 921 Rocket 3.8 02:31:30 10° NW 02:35:13 30° W 02:38:52 10° SSW
Cosmos 1606 Rocket 4.4 02:34:13 10° NNW 02:38:11 32° W 02:42:06 10° SSW
Cosmos 1782 4.1 02:35:07 10° N 02:38:48 42° ENE 02:42:27 10° SSE
Cosmos 724 4.4 02:39:47 10° NW 02:45:26 55° WSW 02:51:07 10° SSE
USA 234 3.5 02:41:04 10° ESE 02:47:37 79° NNE 02:54:11 10° NW
BREEZE-M DEB (TANK) 3.8 02:44:22 10° SW 02:50:08 28° SSE 02:52:44 10° E
